Main page
METAR-TAF:

METAR-TAF

Airports :

Brownwood Regional Airport

Brownwood, Texas, United States

latitude: 31-48N, longitude: 098-57W, elevation: 1384 ft

Current weather observation

The report was made 1 hour and 10 minutes ago, at 02:15 UTC
Wind 13 mph from the Southeast
Temperature 82°F
Humidity 58%
Pressure 29.89 in. Hg
Visibility: 10 miles
Clear sky

METAR: KBWD 200215Z AUTO 14011KT 10SM CLR 28/19 A2989 RMK AO2

Time: 22:25 (03:25 UTC)


TAF: missing

Weather observations and forecasts of more than 4000 airports (METAR and TAF reports).

The available stations are represented by yellow and red dots on the map.

Hover mouse over dot to see the name of the station.

Then click to see weather observations and forecasts.

To change the map : click on the green buttons with a black cross to zoom in, on the green button with a dash to zoom out, or on the green arrows for adjacent maps.


METAR-TAF: